Date String (YYYY-MM-DD hh:mm:ss) UTC,Instrument flags,Ambient pressure (hPa),Sample flow (lpm),Bypass flow (lpm),Sample temperature (°C),Ambient temperature (°C),ASC tube jacket temperature (°C),LED temperature (°C),Box temperature (°C),Sample RH (%),Span deviation,Mass concentration (μg/m³),Mass concentration (μg/m³),Mass concentration (μg/m³)
DateTimeUTC,F1_M11,P_M11,Q1_M11,Q2_M11,T1_M11,T2_M11,T3_M11,T4_M11,T5_M11,U1_M11,ZSPAN_M11,X0_M11,X2_M11,X1_M11
2023-02-22 19:00:00,,0807.8,5.01,0.00,22.8,21.4,00.0,31.6,24.3,04.8,0000.0,0004.77,0003.00,0002.47
2023-02-22 19:01:00,,0807.7,5.00,0.00,22.8,21.2,00.0,31.6,24.3,04.7,0000.0,0004.78,0002.98,0002.48
2023-02-22 19:02:00,,0807.7,4.99,0.00,22.7,21.0,00.0,31.6,24.2,04.7,0000.0,0004.76,0002.94,0002.48
2023-02-22 19:03:00,,0807.5,5.00,0.00,22.7,21.2,00.0,31.6,24.3,04.7,0000.0,0004.60,0002.92,0002.50
2023-02-22 19:04:00,,0807.5,5.00,0.00,22.8,22.2,00.0,31.6,24.5,04.7,0000.0,0004.52,0002.90,0002.50
2023-02-22 19:05:00,,0807.5,5.04,0.00,22.9,23.1,00.0,31.6,24.7,04.6,0000.0,0004.38,0002.88,0002.50
2023-02-22 19:06:00,,0807.6,4.99,0.00,22.9,22.8,00.0,31.6,24.7,04.7,0000.0,0004.24,0002.87,0002.50
2023-02-22 19:07:00,,0807.7,5.02,0.00,22.9,22.3,00.0,31.6,24.6,04.7,0000.0,0003.95,0002.81,0002.50
2023-02-22 19:08:00,,0807.9,5.01,0.00,22.9,21.9,00.0,31.6,24.5,04.6,0000.0,0004.00,0002.84,0002.50
2023-02-22 19:09:00,,0807.7,5.00,0.00,22.8,21.5,00.0,31.6,24.4,04.6,0000.0,0003.99,0002.87,0002.52
2023-02-22 19:10:00,,0807.6,4.99,0.00,22.8,21.3,00.0,31.6,24.4,04.6,0000.0,0005.22,0002.89,0002.54
2023-02-22 19:11:00,,0807.5,5.00,0.00,22.8,21.0,00.0,31.6,24.3,04.6,0000.0,0005.32,0002.89,0002.55
2023-02-22 19:12:00,,0807.5,5.02,0.00,22.7,20.9,00.0,31.6,24.2,04.7,0000.0,0005.29,0002.93,0002.58
2023-02-22 19:13:00,,0807.5,5.00,0.00,22.7,21.4,00.0,31.5,24.3,04.7,0000.0,0005.46,0002.99,0002.62
2023-02-22 19:14:00,,0807.5,4.97,0.00,22.8,22.5,00.0,31.5,24.6,04.6,0000.0,0005.41,0002.99,0002.63
2023-02-22 19:15:00,,0807.5,4.98,0.00,22.9,23.4,00.0,31.6,24.9,04.6,0000.0,0005.37,0002.98,0002.62
2023-02-22 19:16:00,,0807.4,4.97,0.00,23.0,23.1,00.0,31.6,24.8,04.6,0000.0,0005.39,0003.00,0002.64
2023-02-22 19:17:00,,0807.3,5.00,0.00,23.0,22.5,00.0,31.6,24.7,04.6,0000.0,0005.40,0003.02,0002.65
2023-02-22 19:18:00,,0807.3,5.00,0.00,22.9,22.0,00.0,31.6,24.6,04.5,0000.0,0005.58,0003.10,0002.67
2023-02-22 19:19:00,,0807.4,4.99,0.00,22.9,21.7,00.0,31.6,24.5,04.6,0000.0,0005.99,0003.15,0002.69
2023-02-22 19:20:00,,0807.4,5.01,0.00,22.9,21.4,00.0,31.6,24.4,04.7,0000.0,0006.36,0003.16,0002.71
2023-02-22 19:21:00,,0807.4,4.99,0.00,22.8,21.2,00.0,31.6,24.4,04.7,0000.0,0005.42,0003.17,0002.72
2023-02-22 19:22:00,,0807.4,4.99,0.00,22.8,21.0,00.0,31.6,24.3,04.6,0000.0,0005.15,0003.19,0002.71
2023-02-22 19:23:00,,0807.4,4.99,0.00,22.7,20.9,00.0,31.6,24.2,04.6,0000.0,0005.11,0003.18,0002.69
2023-02-22 19:24:00,,0807.4,5.03,0.00,22.8,21.8,00.0,31.6,24.4,04.6,0000.0,0004.94,0003.16,0002.68
2023-02-22 19:25:00,,0807.4,4.98,0.00,22.9,22.9,00.0,31.6,24.7,04.6,0000.0,0004.98,0003.17,0002.68
2023-02-22 19:26:00,,0807.4,5.01,0.00,23.0,23.5,00.0,31.6,24.9,04.6,0000.0,0005.04,0003.18,0002.70
2023-02-22 19:27:00,,0807.3,5.01,0.00,23.0,22.9,00.0,31.6,24.8,04.6,0000.0,0005.85,0003.19,0002.71
2023-02-22 19:28:00,,0807.1,5.02,0.00,23.0,22.3,00.0,31.6,24.6,04.5,0000.0,0005.99,0003.19,0002.72
2023-02-22 19:29:00,,0807.1,5.01,0.00,22.9,21.9,00.0,31.6,24.5,04.5,0000.0,0005.90,0003.17,0002.73
2023-02-22 19:30:00,,0807.1,5.01,0.00,22.9,21.6,00.0,31.6,24.4,04.5,0000.0,0005.61,0003.14,0002.72
2023-02-22 19:31:00,,0807.1,5.00,0.00,22.8,21.3,00.0,31.6,24.3,04.5,0000.0,0005.20,0003.13,0002.74
2023-02-22 19:32:00,,0807.1,4.99,0.00,22.8,21.1,00.0,31.6,24.3,04.6,0000.0,0005.21,0003.14,0002.76
2023-02-22 19:33:00,,0807.2,4.99,0.00,22.8,21.0,00.0,31.6,24.3,04.5,0000.0,0005.21,0003.16,0002.78
2023-02-22 19:34:00,,0807.2,5.01,0.00,22.8,21.8,00.0,31.6,24.4,04.6,0000.0,0005.27,0003.16,0002.79
2023-02-22 19:35:00,,0807.2,5.02,0.00,22.9,22.9,00.0,31.6,24.7,04.6,0000.0,0005.36,0003.18,0002.80
2023-02-22 19:36:00,,0807.1,5.01,0.00,23.0,23.0,00.0,31.6,24.8,04.6,0000.0,0005.40,0003.19,0002.81
2023-02-22 19:37:00,,0807.3,4.98,0.00,22.9,22.5,00.0,31.6,24.6,04.5,0000.0,0005.48,0003.22,0002.82
2023-02-22 19:38:00,,0807.4,5.00,0.00,22.9,22.0,00.0,31.6,24.5,04.5,0000.0,0005.52,0003.21,0002.82
2023-02-22 19:39:00,,0807.5,5.00,0.00,22.9,21.6,00.0,31.6,24.4,04.7,0000.0,0005.63,0003.21,0002.80
2023-02-22 19:40:00,,0807.5,5.00,0.00,22.8,21.3,00.0,31.6,24.3,04.7,0000.0,0005.63,0003.21,0002.81
2023-02-22 19:41:00,,0807.5,5.00,0.00,22.8,21.1,00.0,31.6,24.2,04.7,0000.0,0005.51,0003.21,0002.83
2023-02-22 19:42:00,,0807.5,5.01,0.00,22.7,21.2,00.0,31.6,24.2,04.8,0000.0,0005.51,0003.21,0002.81
2023-02-22 19:43:00,,0807.5,5.00,0.00,22.8,22.2,00.0,31.6,24.5,04.8,0000.0,0005.53,0003.20,0002.78
2023-02-22 19:44:00,,0807.6,5.00,0.00,22.9,23.2,00.0,31.6,24.8,04.7,0000.0,0005.49,0003.18,0002.75
2023-02-22 19:45:00,,0807.6,4.98,0.00,23.0,23.3,00.0,31.6,24.8,04.7,0000.0,0005.78,0003.18,0002.73
2023-02-22 19:46:00,,0807.6,5.00,0.00,23.0,22.7,00.0,31.6,24.7,04.8,0000.0,0006.65,0003.17,0002.71
2023-02-22 19:47:00,,0807.5,4.99,0.00,22.9,22.2,00.0,31.7,24.5,04.8,0000.0,0006.65,0003.14,0002.68
2023-02-22 19:48:00,,0807.4,5.00,0.00,22.9,21.8,00.0,31.7,24.4,04.8,0000.0,0006.60,0003.13,0002.67
2023-02-22 19:49:00,,0807.4,5.00,0.00,22.8,21.4,00.0,31.6,24.3,04.9,0000.0,0006.09,0003.11,0002.66
2023-02-22 19:50:00,,0807.4,4.99,0.00,22.8,21.1,00.0,31.6,24.2,04.9,0000.0,0005.43,0003.08,0002.65
2023-02-22 19:51:00,,0807.4,4.99,0.00,22.7,20.9,00.0,31.6,24.1,04.8,0000.0,0005.48,0003.08,0002.64
2023-02-22 19:52:00,,0807.3,5.00,0.00,22.7,21.4,00.0,31.6,24.3,04.8,0000.0,0005.62,0003.11,0002.63
2023-02-22 19:53:00,,0807.4,5.00,0.00,22.8,22.6,00.0,31.6,24.6,04.7,0000.0,0005.54,0003.08,0002.62
2023-02-22 19:54:00,,0807.6,4.99,0.00,23.0,23.4,00.0,31.6,24.9,04.7,0000.0,0005.54,0003.08,0002.63
2023-02-22 19:55:00,,0807.5,5.00,0.00,23.0,23.1,00.0,31.6,24.8,04.7,0000.0,0005.61,0003.11,0002.65
2023-02-22 19:56:00,,0807.4,5.01,0.00,23.0,22.5,00.0,31.6,24.6,04.7,0000.0,0005.29,0003.11,0002.66
2023-02-22 19:57:00,,0807.3,4.99,0.00,22.9,22.0,00.0,31.7,24.5,04.7,0000.0,0004.34,0003.12,0002.68
2023-02-22 19:58:00,,0807.3,5.01,0.00,22.9,21.6,00.0,31.7,24.4,04.7,0000.0,0004.49,0003.13,0002.70
2023-02-22 19:59:00,,0807.4,4.99,0.00,22.8,21.3,00.0,31.7,24.3,04.7,0000.0,0004.52,0003.14,0002.71
